Overview Statistics Trail Chart Weather Telemetry Raw packets
 

This is the latest recevied weather packets stored in our database for station/object K4KMJ. If no packets are shown the sender has not sent any weather packets the latest 10 day(s).

<< 59 60 61 62 63 64 65 >>
Time Temp. Humidity Pressure Rain* Wind** Luminosity Snow
1788262404 25° C 99% 1018.1 hPa 0 mm - 30 W/m² -
1788262099 24.44° C 99% 1018.2 hPa 0 mm - 25 W/m² -
1788261799 24.44° C 99% 1017.9 hPa 0 mm - 18 W/m² -
1788261499 24.44° C 99% 1018.2 hPa 0 mm - 14 W/m² -
1788261197 24.44° C 99% 1018 hPa 0 mm - 11 W/m² -
1788260896 23.89° C 99% 1018.1 hPa 0 mm - 6 W/m² -
1788260593 23.89° C 99% 1017.9 hPa 0 mm - 3 W/m² -
1788260289 23.89° C 99% 1017.8 hPa 0 mm - 1 W/m² -
1788259988 23.89° C 99% 1017.9 hPa 0 mm - 0 W/m² -
1788259685 23.89° C 99% 1017.8 hPa 0 mm - 0 W/m² -
1788259380 23.89° C 99% 1017.9 hPa 0 mm - 0 W/m² -
1788259075 23.89° C 99% 1017.5 hPa 0 mm - 0 W/m² -
1788258769 23.89° C 99% 1017.8 hPa 0 mm - 0 W/m² -
1788258465 23.89° C 99% 1017.7 hPa 0 mm - 0 W/m² -
1788258159 23.89° C 99% 1017.6 hPa 0 mm - 0 W/m² -
1788257855 23.89° C 99% 1017.5 hPa 0 mm - 0 W/m² -
1788257554 23.89° C 99% 1017.5 hPa 0 mm - 0 W/m² -
1788257254 24.44° C 99% 1017.6 hPa 0 mm - 0 W/m² -
1788256949 24.44° C 99% 1017.7 hPa 0 mm - 0 W/m² -
1788256647 23.89° C 99% 1017.5 hPa 0 mm - 0 W/m² -
1788256345 24.44° C 99% 1017.7 hPa 0 mm - 0 W/m² -
1788256045 24.44° C 99% 1017.6 hPa 0 mm - 0 W/m² -
1788255740 24.44° C 99% 1017.4 hPa 0 mm - 0 W/m² -
1788255436 24.44° C 99% 1017.4 hPa 0 mm - 0 W/m² -
1788255134 24.44° C 99% 1017.3 hPa 0 mm - 0 W/m² -

* Rain latest hour (hover to see other rain measurements)
** Current wind speed in m/s (hover to see current wind gust speed)